Weather History for Orlando International, FL

Change the Weather History Date:

Thursday, June 20, 2013

  Actual Average Record
Temperature  
Mean Temperature 84 °F 82 °F  
Max Temperature 94 °F 91 °F 99 °F (1998)
Min Temperature 73 °F 73 °F 64 °F (1933)
Degree Days  
Heating Degree Days 0 0  
Month to date heating degree days 0 0  
Since 1 June heating degree days 0 0  
Since 1 July heating degree days 461 571  
Cooling Degree Days 19 17  
Month to date cooling degree days 337 320  
Year to date cooling degree days 1209 1121  
Since 1 June cooling degree days 337 320  
Growing Degree Days 33 (Base 50)    
Moisture  
Dew Point 73 °F    
Average Humidity 72    
Maximum Humidity 94    
Minimum Humidity 49    
Precipitation  
Precipitation 0.10 in 0.26 in 2.00 in (1975)
Month to date precipitation 9.25 5.05  
Year to date precipitation 20.12 19.68  
Sea Level Pressure  
Sea Level Pressure 30.07 in    
Wind  
Wind Speed 5 mph (SSW)    
Max Wind Speed 21 mph    
Max Gust Speed 25 mph    
Visibility 10 miles    
Events Rain , Thunderstorm    
T = Trace of Precipitation, MM = Missing Value Source: NWS Daily Summary

Daily Weather History Graph

Daily Weather History Graph

Search for Another Location

Airport:

Trip Planner

Search our weather history database for the weather conditions in past years. The results will help you decide how hot, cold, wet, or windy it might be!

Date:

Astronomy

Jun. 20, 2013 Rise Set
Actual Time 6:28 AM EDT 8:25 PM EDT
Civil Twilight 6:01 AM EDT 8:52 PM EDT
Nautical Twilight 5:28 AM EDT 9:24 PM EDT
Astronomical Twilight 4:54 AM EDT 9:59 PM EDT
Moon 5:34 PM EDT 3:43 AM EDT
Length of Visible Light 14h 51m
Length of Day
13h 57m
Waxing Gibbous, 89% of the Moon is Illuminated
Jun 20
Waxing Gibbous
Jun 23
Full
Jun 30
Last Quarter
Jul 8
New
Jul 15
First Quarter

Hourly Weather History & Observations

Time (EDT) Temp. Heat Index Dew Point Humidity Pressure Visibility Wind Dir Wind Speed Gust Speed Precip Events Conditions
12:53 AM 75.9 °F - 73.9 °F 94% 30.07 in 10.0 mi South 3.5 mph - N/A   Scattered Clouds
1:53 AM 78.1 °F - 73.9 °F 87% 30.06 in 10.0 mi West 6.9 mph - N/A   Scattered Clouds
2:53 AM 75.9 °F - 73.0 °F 91% 30.04 in 10.0 mi SE 8.1 mph - N/A   Partly Cloudy
3:53 AM 77.0 °F - 73.9 °F 90% 30.03 in 10.0 mi SW 4.6 mph - N/A   Scattered Clouds
4:53 AM 75.0 °F - 73.0 °F 94% 30.03 in 10.0 mi SE 3.5 mph - N/A   Scattered Clouds
5:00 AM 75.2 °F - 73.4 °F 94% 30.04 in 10.0 mi Calm Calm - N/A   Mostly Cloudy
5:21 AM 75.2 °F - 73.4 °F 94% 30.04 in 10.0 mi South 3.5 mph - N/A   Scattered Clouds
5:53 AM 75.9 °F - 73.0 °F 91% 30.04 in 10.0 mi Calm Calm - N/A   Scattered Clouds
6:53 AM 75.0 °F - 73.0 °F 94% 30.06 in 10.0 mi Calm Calm - N/A   Partly Cloudy
7:53 AM 78.1 °F - 73.0 °F 84% 30.08 in 10.0 mi SSW 3.5 mph - N/A   Scattered Clouds
8:53 AM 81.0 °F 85.8 °F 73.0 °F 77% 30.09 in 10.0 mi SSW 3.5 mph - N/A   Mostly Cloudy
9:53 AM 82.9 °F 88.8 °F 73.0 °F 72% 30.10 in 10.0 mi South 3.5 mph - N/A   Mostly Cloudy
10:53 AM 84.9 °F 91.4 °F 73.0 °F 67% 30.10 in 10.0 mi SW 5.8 mph - N/A   Scattered Clouds
11:53 AM 88.0 °F 95.6 °F 73.0 °F 61% 30.10 in 10.0 mi SW 5.8 mph - N/A   Scattered Clouds
12:53 PM 89.1 °F 96.0 °F 72.0 °F 57% 30.09 in 10.0 mi Calm Calm - N/A   Scattered Clouds
1:53 PM 91.0 °F 99.3 °F 73.0 °F 55% 30.06 in 10.0 mi SW 8.1 mph - N/A   Mostly Cloudy
2:53 PM 93.0 °F 100.1 °F 71.1 °F 49% 30.04 in 10.0 mi North 4.6 mph - N/A   Mostly Cloudy
3:53 PM 91.9 °F 98.4 °F 71.1 °F 50% 30.04 in 10.0 mi East 12.7 mph 17.3 mph N/A   Mostly Cloudy
4:10 PM 86.0 °F 91.8 °F 71.6 °F 62% 30.03 in 10.0 mi ENE 16.1 mph 25.3 mph N/A Thunderstorm Thunderstorm
4:53 PM 80.1 °F 83.8 °F 72.0 °F 76% 30.07 in 10.0 mi South 13.8 mph 19.6 mph 0.00 in Rain , Thunderstorm Light Thunderstorms and Rain
5:02 PM 77.0 °F - 73.4 °F 89% 30.08 in 9.0 mi SSE 12.7 mph 20.7 mph 0.00 in Rain , Thunderstorm Light Thunderstorms and Rain
5:36 PM 75.2 °F - 73.4 °F 94% 30.06 in 10.0 mi Variable 3.5 mph - 0.00 in Rain , Thunderstorm Light Thunderstorms and Rain
5:53 PM 73.0 °F - 72.0 °F 96% 30.06 in 10.0 mi South 8.1 mph - 0.00 in Rain , Thunderstorm Light Thunderstorms and Rain
6:53 PM 75.0 °F - 71.1 °F 87% 30.13 in 10.0 mi WNW 8.1 mph - 0.01 in Rain , Thunderstorm Light Thunderstorms and Rain
7:53 PM 75.0 °F - 72.0 °F 90% 30.11 in 10.0 mi NW 6.9 mph - 0.00 in Rain , Thunderstorm Light Thunderstorms and Rain
8:06 PM 73.4 °F - 71.6 °F 94% 30.11 in 4.0 mi Calm Calm - 0.02 in Rain Rain
8:53 PM 73.9 °F - 72.0 °F 93% 30.08 in 10.0 mi NW 3.5 mph - 0.09 in Rain Light Rain
9:53 PM 73.9 °F - 73.0 °F 97% 30.08 in 10.0 mi South 3.5 mph - 0.00 in   Mostly Cloudy
10:53 PM 73.0 °F - 72.0 °F 96% 30.09 in 10.0 mi South 6.9 mph - N/A   Scattered Clouds
11:53 PM 73.9 °F - 72.0 °F 93% 30.11 in 10.0 mi Calm Calm - N/A   Partly Cloudy